GW0483 Weather Reports


Display with metric or nautical units.
time (UTC)temp
F
wind
direction
speed
MPH
gust
MPH
rain 1hr
in
rain 24hr
in
rain mn
in
humidity
%
barometer
mb
20260505223756 84 184 3.0 5.0 0.00 0.00 0.00 72 1004.7
20260505223253 84 151 4.0 6.0 0.00 0.00 0.00 72 1004.6
20260505222749 85 209 4.0 5.0 0.00 0.00 0.00 71 1005.0
20260505222245 84 153 1.0 2.0 0.00 0.00 0.00 73 1004.7
20260505221743 84 155 3.0 5.0 0.00 0.00 0.00 72 1004.7
20260505221239 84 166 3.0 5.0 0.00 0.00 0.00 71 1004.8
20260505220736 84 209 3.0 5.0 0.00 0.00 0.00 72 1004.8
20260505220233 84 182 2.0 3.0 0.00 0.00 0.00 72 1005.0
20260505215731 84 211 3.0 3.0 0.00 0.00 0.00 73 1004.9
20260505215229 84 151 3.0 5.0 0.00 0.00 0.00 73 1004.7
20260505214727 83 186 4.0 5.0 0.00 0.00 0.00 73 1004.8
20260505214224 84 156 2.0 3.0 0.00 0.00 0.00 73 1004.8
20260505213721 85 157 3.0 3.0 0.00 0.00 0.00 71 1005.3
20260505213218 85 152 3.0 6.0 0.00 0.00 0.00 71 1005.0
20260505212714 86 171 3.0 5.0 0.00 0.00 0.00 71 1005.1
20260505212212 84 154 6.0 8.0 0.00 0.00 0.00 73 1005.6
20260505211708 84 153 4.0 5.0 0.00 0.00 0.00 73 1005.4
20260505211206 83 156 4.0 6.0 0.00 0.00 0.00 73 1005.5
20260505210702 84 153 5.0 7.0 0.00 0.00 0.00 73 1005.7
20260505210159 84 154 1.0 2.0 0.00 0.00 0.00 72 1005.6
20260505205656 84 153 4.0 5.0 0.00 0.00 0.00 72 1005.8
20260505205154 84 152 3.0 3.0 0.00 0.00 0.00 72 1005.7
20260505204651 84 155 2.0 2.0 0.00 0.00 0.00 72 1005.7
20260505204149 84 155 2.0 5.0 0.00 0.00 0.00 73 1005.8
20260505203646 83 155 2.0 2.0 0.00 0.00 0.00 74 1005.9
20260505203142 82 182 3.0 3.0 0.00 0.00 0.00 75 1006.0
20260505202638 83 155 0.0 1.0 0.00 0.00 0.00 75 1006.1
20260505202134 84 152 3.0 5.0 0.00 0.00 0.00 74 1006.1
20260505201631 82 155 2.0 2.0 0.00 0.00 0.00 75 1006.1
20260505201129 82 156 4.0 6.0 0.00 0.00 0.00 76 1006.2
20260505200627 84 187 3.0 3.0 0.00 0.00 0.00 74 1006.3
20260505200124 85 190 2.0 3.0 0.00 0.00 0.00 73 1006.4
20260505195620 83 208 3.0 5.0 0.00 0.00 0.00 74 1006.3
20260505195117 82 215 7.0 8.0 0.00 0.00 0.00 75 1006.5
20260505194614 82 156 3.0 3.0 0.00 0.00 0.00 76 1006.6
20260505194109 82 176 5.0 6.0 0.00 0.00 0.00 76 1006.6
20260505193601 82 158 2.0 2.0 0.00 0.00 0.00 76 1006.6
20260505193058 82 213 2.0 2.0 0.00 0.00 0.00 76 1006.9
20260505192557 82 211 6.0 8.0 0.00 0.00 0.00 75 1006.7
20260505192054 81 206 4.0 5.0 0.00 0.00 0.00 77 1006.8
20260505191552 81 161 1.0 1.0 0.00 0.00 0.00 77 1006.7
20260505191049 81 160 2.0 3.0 0.00 0.00 0.00 77 1006.6
20260505190544 81 203 5.0 7.0 0.00 0.00 0.00 77 1006.8
20260505190040 81 162 4.0 5.0 0.00 0.00 0.00 78 1007.1
20260505185537 80 162 2.0 3.0 0.00 0.00 0.00 80 1007.1
20260505185033 80 210 4.0 6.0 0.00 0.00 0.00 80 1007.4
20260505184530 79 161 1.0 1.0 0.00 0.00 0.00 81 1007.4
20260505184027 80 161 2.0 2.0 0.00 0.00 0.00 81 1007.4
20260505183524 79 207 5.0 7.0 0.00 0.00 0.00 80 1007.4
20260505183021 80 209 4.0 7.0 0.00 0.00 0.00 80 1007.5
20260505182518 80 161 1.0 1.0 0.00 0.00 0.00 79 1007.5
20260505182015 80 161 4.0 5.0 0.00 0.00 0.00 80 1007.3
20260505181511 79 161 3.0 3.0 0.00 0.00 0.00 80 1007.5
20260505181009 78 162 3.0 5.0 0.00 0.00 0.00 83 1007.5
20260505180504 77 170 2.0 3.0 0.00 0.00 0.00 84 1007.9
20260505180002 77 190 2.0 3.0 0.00 0.00 0.00 84 1007.7
20260505175457 77 193 3.0 3.0 0.00 0.00 0.00 84 1007.7
20260505174954 77 209 3.0 5.0 0.00 0.00 0.00 84 1007.9
20260505174451 77 162 2.0 2.0 0.00 0.00 0.00 85 1007.8
20260505173947 77 160 4.0 5.0 0.00 0.00 0.00 84 1007.8
20260505173444 77 161 3.0 3.0 0.00 0.00 0.00 84 1008.0
20260505172941 77 161 3.0 3.0 0.00 0.00 0.00 84 1007.7
20260505172439 77 162 3.0 3.0 0.00 0.00 0.00 84 1007.9
20260505171938 77 176 3.0 3.0 0.00 0.00 0.00 85 1007.8
20260505171436 76 161 3.0 6.0 0.00 0.00 0.00 86 1007.9
20260505170932 76 162 1.0 1.0 0.00 0.00 0.00 87 1007.8
20260505170429 75 164 2.0 2.0 0.00 0.00 0.00 89 1008.0
20260505165924 75 205 3.0 3.0 0.00 0.00 0.00 89 1008.2
20260505165420 75 163 1.0 2.0 0.00 0.00 0.00 89 1007.9
20260505164916 74 163 1.0 2.0 0.00 0.00 0.00 91 1007.8
20260505164413 73 205 3.0 3.0 0.00 0.00 0.00 92 1007.7
20260505163911 73 205 6.0 7.0 0.00 0.00 0.00 92 1007.7
20260505163410 73 163 3.0 3.0 0.00 0.00 0.00 93 1007.9
20260505162908 73 185 5.0 7.0 0.00 0.00 0.00 93 1007.9
20260505162403 72 201 1.0 2.0 0.00 0.00 0.00 94 1008.0
20260505161900 72 200 4.0 6.0 0.00 0.00 0.00 95 1008.0
20260505161357 72 187 2.0 3.0 0.00 0.00 0.00 95 1007.7
20260505160854 71 207 3.0 3.0 0.00 0.00 0.00 95 1007.7
20260505160353 71 163 3.0 6.0 0.00 0.00 0.00 95 1007.9
20260505153331 70 169 1.0 1.0 0.00 0.00 0.00 96 1008.1
20260505152828 70 210 4.0 6.0 0.00 0.00 0.00 97 1007.8
20260505152325 70 204 4.0 6.0 0.00 0.00 0.00 97 1007.8
20260505151820 70 176 3.0 6.0 0.00 0.00 0.00 97 1007.9
20260505151317 70 204 5.0 7.0 0.00 0.00 0.00 97 1007.8
20260505150814 70 199 1.0 2.0 0.00 0.00 0.00 97 1007.8
20260505150311 69 171 1.0 2.0 0.00 0.00 0.00 97 1007.8
20260505140235 68 171 2.0 3.0 0.00 0.00 0.00 97 1007.7
20260505130159 68 170 2.0 3.0 0.00 0.00 0.00 97 1007.1
20260505124649 68 176 6.0 9.0 0.00 0.00 0.00 97 1007.2
20260505124145 68 169 4.0 5.0 0.00 0.00 0.00 97 1007.1
20260505123641 68 168 2.0 2.0 0.00 0.00 0.00 97 1006.8
20260505123138 68 170 3.0 5.0 0.00 0.00 0.00 97 1006.8
20260505122634 68 170 2.0 2.0 0.00 0.00 0.00 97 1006.9
20260505122132 68 166 3.0 5.0 0.00 0.00 0.00 97 1006.6
20260505121628 68 202 5.0 6.0 0.00 0.00 0.00 97 1006.5
20260505121125 68 185 5.0 8.0 0.00 0.00 0.00 97 1006.5
20260505120621 68 194 4.0 6.0 0.00 0.00 0.00 97 1006.4
20260505120117 68 167 4.0 5.0 0.00 0.00 0.00 97 1006.5
20260505115612 68 175 4.0 5.0 0.00 0.00 0.00 96 1006.4
20260505115110 68 179 2.0 3.0 0.00 0.00 0.00 97 1006.4
20260505114606 68 172 2.0 3.0 0.00 0.00 0.00 97 1006.3
20260505114103 68 193 3.0 3.0 0.00 0.00 0.00 96 1006.3
20260505113559 68 175 4.0 5.0 0.00 0.00 0.00 96 1006.3
20260505113056 68 205 3.0 6.0 0.00 0.00 0.00 96 1006.2
20260505112552 68 166 3.0 5.0 0.00 0.00 0.00 96 1006.4
20260505112050 68 183 2.0 2.0 0.00 0.00 0.00 96 1006.2
20260505111544 68 188 3.0 5.0 0.00 0.00 0.00 96 1006.3
20260505111040 68 185 2.0 2.0 0.00 0.00 0.00 96 1006.3
20260505110537 68 184 3.0 5.0 0.00 0.00 0.00 96 1006.2
20260505102009 68 178 5.0 7.0 0.00 0.00 0.00 96 1006.2
20260505101508 68 207 3.0 3.0 0.00 0.00 0.00 96 1006.4
20260505101004 68 163 6.0 8.0 0.00 0.00 0.00 96 1006.5
20260505100501 68 203 3.0 3.0 0.00 0.00 0.00 96 1006.6
20260505095957 68 145 4.0 7.0 0.00 0.00 0.00 96 1006.4
20260505095454 68 192 4.0 6.0 0.00 0.00 0.00 96 1006.6
20260505094950 68 194 2.0 2.0 0.00 0.00 0.00 96 1006.7
20260505094447 68 169 4.0 5.0 0.00 0.00 0.00 96 1006.5
20260505093943 68 180 5.0 7.0 0.00 0.00 0.00 96 1006.5
20260505093440 68 188 3.0 5.0 0.00 0.00 0.00 96 1006.6
20260505092937 68 195 5.0 6.0 0.00 0.00 0.00 96 1006.6
20260505092435 68 158 3.0 3.0 0.00 0.00 0.00 96 1006.8
20260505091932 68 184 3.0 3.0 0.00 0.00 0.00 96 1006.3
20260505091430 68 173 3.0 5.0 0.00 0.00 0.00 96 1006.6
20260505090927 68 208 8.0 10.0 0.00 0.00 0.00 96 1006.7
20260505090426 68 179 4.0 6.0 0.00 0.00 0.00 96 1006.7
20260505085922 68 158 2.0 3.0 0.00 0.00 0.00 96 1006.9
20260505085420 68 168 3.0 5.0 0.00 0.00 0.00 96 1006.7
20260505084918 68 174 2.0 3.0 0.00 0.00 0.00 96 1006.7
20260505084416 68 212 5.0 7.0 0.00 0.00 0.00 96 1006.7
20260505083914 68 160 3.0 6.0 0.00 0.00 0.00 96 1007.1
20260505083411 68 218 5.0 8.0 0.00 0.00 0.00 96 1006.8
20260505082907 68 222 3.0 5.0 0.00 0.00 0.00 96 1006.7
20260505082403 68 164 3.0 3.0 0.00 0.00 0.00 96 1006.8
20260505081900 68 158 4.0 5.0 0.00 0.00 0.00 96 1007.2
20260505081357 68 175 3.0 3.0 0.00 0.00 0.00 96 1007.1
20260505080853 68 154 2.0 2.0 0.00 0.00 0.00 96 1007.2
20260505080349 68 165 3.0 5.0 0.00 0.00 0.00 96 1007.3
20260505075845 68 159 7.0 9.0 0.00 0.00 0.00 96 1007.4
20260505075342 68 200 3.0 5.0 0.00 0.00 0.00 96 1007.3
20260505074839 68 186 5.0 6.0 0.00 0.00 0.00 96 1007.3
20260505074337 68 152 4.0 6.0 0.00 0.00 0.00 96 1007.2
20260505073834 68 211 3.0 8.0 0.00 0.00 0.00 95 1007.4
20260505073332 68 161 2.0 2.0 0.00 0.00 0.00 95 1007.8
20260505072828 68 174 2.0 3.0 0.00 0.00 0.00 95 1007.7
20260505072325 68 167 4.0 5.0 0.00 0.00 0.00 95 1007.8
20260505071820 69 180 4.0 7.0 0.00 0.00 0.00 95 1008.0
20260505071317 69 179 3.0 5.0 0.00 0.00 0.00 95 1007.9
20260505070815 69 145 3.0 5.0 0.00 0.00 0.00 95 1008.0
20260505070311 69 145 4.0 6.0 0.00 0.00 0.00 95 1008.1
20260505065807 69 160 3.0 3.0 0.00 0.00 0.00 95 1008.3
20260505065304 69 171 3.0 3.0 0.00 0.00 0.00 94 1007.9
20260505064801 69 155 2.0 3.0 0.00 0.00 0.00 94 1008.5
20260505064258 69 157 2.0 3.0 0.00 0.00 0.00 94 1008.5
20260505063756 69 173 3.0 3.0 0.00 0.00 0.00 94 1008.4
20260505063252 69 221 2.0 3.0 0.00 0.00 0.00 94 1008.3
20260505062749 69 141 3.0 5.0 0.00 0.00 0.00 94 1008.3
20260505062246 69 148 4.0 5.0 0.00 0.00 0.00 94 1008.5
20260505061743 69 149 5.0 6.0 0.00 0.00 0.00 94 1008.5
20260505061241 69 187 3.0 5.0 0.00 0.00 0.00 94 1008.5
20260505060738 69 152 5.0 6.0 0.00 0.00 0.00 94 1008.6
20260505060235 69 186 5.0 8.0 0.00 0.00 0.00 93 1008.7
20260505055730 69 215 4.0 5.0 0.00 0.00 0.00 93 1008.8
20260505055227 69 143 2.0 5.0 0.00 0.00 0.00 93 1008.6
20260505054724 69 163 3.0 3.0 0.00 0.00 0.00 93 1008.5
20260505054222 69 170 5.0 6.0 0.00 0.00 0.00 93 1008.4
20260505053720 69 185 3.0 3.0 0.00 0.00 0.00 93 1008.7
20260505053216 69 149 3.0 5.0 0.00 0.00 0.00 93 1008.8
20260505052714 69 206 4.0 6.0 0.00 0.00 0.00 93 1008.6
20260505052210 69 161 3.0 3.0 0.00 0.00 0.00 93 1008.5
20260505051708 69 149 3.0 5.0 0.00 0.00 0.00 93 1008.7
20260505051206 69 146 3.0 3.0 0.00 0.00 0.00 93 1008.7
20260505050703 69 144 5.0 6.0 0.00 0.00 0.00 93 1008.5
20260505050201 69 146 4.0 6.0 0.00 0.00 0.00 93 1008.3
20260505041631 70 142 3.0 5.0 0.00 0.00 0.00 92 1008.6
20260505041128 70 143 2.0 3.0 0.00 0.00 0.00 91 1008.5
20260505040625 70 141 2.0 2.0 0.00 0.00 0.00 91 1008.5
20260505040122 71 147 3.0 5.0 0.00 0.00 0.00 91 1008.6
20260505035618 71 144 3.0 3.0 0.00 0.00 0.00 91 1008.6
20260505035115 71 143 3.0 3.0 0.00 0.00 0.00 90 1008.5
20260505034612 71 145 3.0 3.0 0.00 0.00 0.00 90 1008.4
20260505034108 71 145 4.0 6.0 0.00 0.00 0.00 90 1008.4
20260505033605 71 141 3.0 5.0 0.00 0.00 0.00 90 1008.4
20260505033104 71 142 2.0 2.0 0.00 0.00 0.00 90 1008.8
20260505032601 71 140 2.0 2.0 0.00 0.00 0.00 90 1008.5
20260505032057 71 142 3.0 3.0 0.00 0.00 0.00 89 1008.5
20260505031555 71 143 3.0 5.0 0.00 0.00 0.00 89 1008.3
20260505031051 71 141 3.0 3.0 0.00 0.00 0.00 89 1008.3
20260505030548 71 138 2.0 2.0 0.00 0.00 0.00 89 1008.7
20260505030044 71 138 3.0 3.0 0.00 0.00 0.00 89 1008.4
20260505025540 71 139 3.0 3.0 0.00 0.00 0.00 88 1008.4
20260505025039 71 138 3.0 3.0 0.00 0.00 0.00 88 1008.5
20260505024536 71 138 3.0 3.0 0.00 0.00 0.00 88 1008.7
20260505024033 71 137 2.0 3.0 0.00 0.00 0.00 88 1008.4
20260505023530 71 136 1.0 1.0 0.00 0.00 0.00 87 1008.3
20260505023027 72 137 2.0 2.0 0.00 0.00 0.00 87 1008.3
20260505022525 72 137 2.0 2.0 0.00 0.00 0.00 86 1008.4
20260505022022 72 136 1.0 2.0 0.00 0.00 0.00 86 1008.4
20260505021518 72 137 3.0 5.0 0.00 0.00 0.00 86 1008.4
20260505021014 72 135 1.0 2.0 0.00 0.00 0.00 85 1008.1
20260505020509 73 135 1.0 1.0 0.00 0.00 0.00 85 1008.1
20260505020006 73 137 0.0 1.0 0.00 0.00 0.00 85 1007.9
20260505015503 73 135 3.0 3.0 0.00 0.00 0.00 84 1008.2
20260505015000 73 134 1.0 1.0 0.00 0.00 0.00 84 1008.1
20260505014457 73 134 1.0 2.0 0.00 0.00 0.00 83 1007.9
20260505013954 73 137 3.0 5.0 0.00 0.00 0.00 83 1007.9
20260505013451 74 142 2.0 2.0 0.00 0.00 0.00 82 1008.0
20260505012949 74 132 3.0 3.0 0.00 0.00 0.00 82 1008.2
20260505012447 74 132 2.0 2.0 0.00 0.00 0.00 81 1008.1
20260505011943 74 144 3.0 3.0 0.00 0.00 0.00 81 1008.2
20260505011439 75 130 4.0 6.0 0.00 0.00 0.00 80 1008.1
20260505010936 75 132 1.0 2.0 0.00 0.00 0.00 80 1007.8
20260505010432 75 130 3.0 3.0 0.00 0.00 0.00 77 1008.1
20260505005928 76 136 5.0 7.0 0.00 0.00 0.00 75 1007.9
20260505005425 76 145 3.0 3.0 0.00 0.00 0.00 74 1008.1
20260505004923 76 145 3.0 3.0 0.00 0.00 0.00 73 1007.8
20260505004419 76 131 3.0 5.0 0.00 0.00 0.00 73 1007.8
20260505003916 77 146 4.0 6.0 0.00 0.00 0.00 72 1007.9
20260505003413 77 131 4.0 5.0 0.00 0.00 0.00 71 1007.8
20260505002909 77 130 4.0 5.0 0.00 0.00 0.00 72 1007.8
20260505002406 77 148 4.0 5.0 0.00 0.00 0.00 71 1007.7
20260505001904 77 143 5.0 6.0 0.00 0.00 0.00 71 1007.8
20260505001401 77 148 4.0 5.0 0.00 0.00 0.00 71 1007.8
20260505000859 77 148 3.0 8.0 0.00 0.00 0.00 70 1007.7
20260505000358 77 147 5.0 7.0 0.00 0.00 0.00 70 1007.8
20260504235852 78 134 4.0 6.0 0.00 0.00 0.00 70 1008.0
20260504235350 78 147 5.0 6.0 0.00 0.00 0.00 69 1008.1
20260504234846 78 145 4.0 5.0 0.00 0.00 0.00 69 1007.9
20260504234344 79 146 6.0 7.0 0.00 0.00 0.00 68 1008.1
20260504233840 79 137 4.0 7.0 0.00 0.00 0.00 69 1008.1
20260504233336 78 144 3.0 5.0 0.00 0.00 0.00 69 1008.5
20260504232833 78 144 3.0 3.0 0.00 0.00 0.00 69 1008.7
20260504232330 78 145 4.0 5.0 0.00 0.00 0.00 70 1008.8
20260504231827 78 145 5.0 6.0 0.00 0.00 0.00 69 1008.4
20260504231323 79 146 6.0 7.0 0.00 0.00 0.00 68 1008.7
20260504230819 80 143 3.0 5.0 0.00 0.00 0.00 67 1008.8
20260504230318 78 132 3.0 5.0 0.00 0.00 0.00 68 1008.6
20260504225816 79 144 3.0 3.0 0.00 0.00 0.00 67 1008.6
20260504225312 80 130 4.0 5.0 0.00 0.00 0.00 67 1008.9
20260504224809 79 136 5.0 8.0 0.00 0.00 0.00 66 1008.8
20260504224306 79 143 6.0 9.0 0.00 0.00 0.00 66 1009.0